Find OneWeb SL0096

NORAD ID: 45439 Int'l Des: 2020-020 Owner: ONEWEB Country: UK Constellation: oneweb operational
LEOCIRCULARPOLARONEWEB_TYPE

当前视图

正在加载3D地球...

About OneWeb SL0096

OneWeb SL0096 (NORAD 45439) is a oneweb constellation satellite launched Mar 21, 2020 by ONEWEB of UK. It operates in LEO, CIRCULAR, POLAR, ONEWEB_TYPE orbit with a mass of 148.00 kg.

关于 OneWeb SL0096

正在加载描述...

即将过境

Passes for default location (London). Set your location on the main map for personalized predictions.

高度历史

Loading altitude history...

两行轨道根数

1 45439U 20020R 26170.65091517 .00000440 00000-0 12043-2 0 9999
2 45439 87.8894 20.5719 0001842 88.3371 271.7967 13.11421766302983
Epoch: Jun 19, 2026 • Age: 11 hours

当前状态

高度 1230.8 km
速度 7.24 km/s
星下点 -33.10°S, 74.18°E
发射日期 Mar 21, 2020
运行时间 6.2 years
类型 internet

技术详情

分类 Payload
质量 148.00 kg
干质量 140.00 kg
总质量 148.00 kg
长度 1.30 m
直径 1.00 m
跨度 5.00 m
形状 Trapezoid+2 pan
制造商 ONEWUS
平台类型 ARROW
阶段状态 In Orbit
所有者/国家 ONEWEB/UK

Most Searched